SCP
0 0 0 0 0 0 0 0 0 0 0 0 0 0 0 0 0 0 0 0 0 0 0 0 0 0 0 0 0 0 0 0 0 0 0 0 0 0 0 0 0 0 0
0 0 0 0 0 0 0 0 0 0 0 0 0 0 0 0 0 0 0 0 0 0 0 0 0 0 0 0 0 0 0 0 0 0 0 0 0 0 0 0 0 0 0
0 0 0 0 0 0 0 0 0 0 0 0 0 0 0 0 0 0 0 0 0 0 0 0 0 0 0 0 0 0 0 0 0 0 0 0 0 0 0 0 0 0 0
0 0 0 0 0 0 0 0 0 0 0 0 0 0 0 0 0 0 0 0 0 0 0 0 0 0 0 0 0 0 0 0 0 0 0 0 0 0 0 0 0 0 0
0 0 0 0 0 0 0 0 0 0 0 0 0 0 0 0 0 0 0 0 0 0 0 0 0 0 0 0 0 0 0 0 0 0 0 0 0 0 0 0 0 0 0
0 0 0 0 0 0 0 0 0 0 0 0 0 0 0 0 0 0 0 0 0 0 0 0 0 0 0 0 0 0 0 0 0 0 0 0 0 0 0 0 0 0 0
0 0 0 0 0 0 0 0 0 0 0 0 0 0 0 0 0 0 0 0 0 0 0 0 0 0 0 0 0 0 0 0 0 0 0 0 0 0 0 0 0 0 0
0 0 0 0 0 0 0 0 0 0 0 0 0 0 0 0 0 0 0 0 0 0 0 0 0 0 0 0 0 0 0 0 0 0 0 0 0 0 0 0 0 0 0
0 0 0 0 0 0 0 0 0 0 0 0 0 0 0 0 0 0 0 0 0 0 0 0 0 0 0 0 0 0 0 0 0 0 0 0 0 0 0 0 0 0 0
0 0 0 0 0 0 0 0 0 0 0 0 0 0 0 0 0 0 0 0 0 0 0 0 0 0 0 0 0 0 0 0 0 0 0 0 0 0 0 0 0 0 0
0 0 0 0 0 0 0 0 0 0 0 0 0 0 0 0 0 0 0 0 0 0 0 0 0 0 0 0 0 0 0 0 0 0 0 0 0 0 0 0 0 0 0
-0 0 0 0 0 0 0 0 0 0 0 0 0 0 0 0 0 0 0 0 0 0 0 0 0 0 0 0 0 0 0 0 0 0 0 0 0 0 0 0 0 0 0
0 0 0 0 0 0 0 0 0 0 0 0 0 0 0 0 0 0 0 0 0 0 0 0 0 0 0 0 0 0 0 0 0 0 0 0 0 0 0 0 0 0 0
0 0 0 0 0 0 0 0 0 0 0 0 0 0 0 0 0 0 0 0 0 0 0 0 0 0 0 0 0 0 0 0 0 0 0 0 0 0 0 0 0 0 0
0 0 0 0 0 0 0 0 0 0 0 0 0 0 0 0 0 0 0 0 0 0 0 0 0 0 0 0 0 0 0 0 0 0 0 0 0 0 0 0 0 0 0
0 0 0 0 0 0 0 0 0 0 0 0 0 0 0 0 0 0 0 0 0 0 0 0 0 0 0 0 0 0 0 0 0 0 0 0 0 0 0 0 0 0 0
0 0 0 0 0 0 0 0 0 0 0 0 0 0 0 0 0 0 0 0 0 0 0 0 0 0 0 0 0 0 0 0 0 0 0 0 0 0 0 0 0 0 0
0 0 0 0 0 0 0 0 0 0 0 0 0 0 0 0 0 0 0 0 0 0 0 0 0 0 0 0 0 0 0 0 0 0 0 0 0 0 0 0 0 0 0
0 0 0 0 0 0 0 0 0 0 0 0 0 0 0 0 0 0 0 0 0 0 0 0 0 0 0 0 0 0 0 0 0 0 0 0 0 0 0 0 0 0 0
0 0 0 0 0 0 0 0 0 0 0 0 0 0 0 0 0 0 0 0 0 0 0 0 0 0 0 0 0 0 0 0 0 0 0 0 0 0 0 0 0 0 0
0 0 0 0 0 0 0 0 0 0 0 0 0 0 0 0 0 0 0 0 0 0 0 0 0 0 0 0 0 0 0 0 0 0 0 0 0 0 0 0 0 0 0
0 0 0 0 0 0 0 0 0 0 0 0 0 0 0 0 0 0 0 0 0 0 0 0 0 0 0 0 0 0 0 0 0 0 0 0 0 0 0 0 0 0 0
0 0 0 0 0 0 0 0 0 0 0 0 0 0 0 0 0 0 0 0 0 0 0 0 0 0 0 0 0 0 0 0 0 0 0 0 0 0 0 0 0 0 0
0 0 0 0 0 0 0 0 0 0 0 0 0 0 0 0 0 0 0 0 0 0 0 0 0 0 0 0 0 0 0 0 0 0 0 0 0 0 0 0 0 0 0
0 0 0 0 0 0 0 0 0 0 0 0 0 0 0 0 0 0 0 0 0 0 0 0 0 0 0 0 0 0 0 0 0 0 0 0 0 0 0 0 0 0 0
0 0 0 0 0 0 0 0 0 0 0 0 0 0 0 0 0 0 0 0 0 0 0 0 0 0 0 0 0 0 0 0 0 0 0 0 0 0 0 0 0 0 0
Wind_Speed
3 3 2 2 2 2 3 4 4 4 4 5 5 5 5 5 5 5 5 5 5 5 4 4 4 4 3 3 3 3 2 2 4 3 2 2 1 2 2 1 2 2 3
3 3 3 2 2 3 3 4 3 4 4 5 5 5 6 6 6 6 6 6 6 6 6 6 6 4 4 4 3 3 3 3 3 4 3 2 2 2 2 2 2 2 2
3 3 3 3 3 3 3 3 3 3 4 4 5 5 6 6 6 7 7 7 7 7 7 7 6 6 6 4 4 4 3 3 3 4 4 2 2 1 1 2 2 2 2
3 3 3 3 3 3 3 3 3 3 3 4 4 4 5 5 5 6 6 6 6 6 6 6 7 7 7 6 5 5 4 4 3 3 3 3 2 2 1 2 2 1 2
3 3 3 3 3 3 3 3 3 3 4 3 3 3 3 4 4 5 5 6 6 6 5 6 6 8 9 7 6 5 5 4 4 4 4 3 3 2 3 2 2 2 2
3 3 3 3 3 3 3 3 3 3 3 2 3 3 4 4 7 9 6 5 5 6 6 5 6 7 9 10 11 10 8 6 6 5 5 5 5 4 3 3 2 2 3
4 4 3 3 4 4 3 2 2 3 2 3 3 3 4 5 8 8 8 5 5 5 6 5 5 6 7 6 7 9 9 10 10 7 7 7 6 5 4 4 4 4 4
4 4 4 3 4 3 2 2 2 2 2 3 3 3 4 5 7 7 8 4 4 4 5 5 6 6 6 6 6 6 6 6 7 6 6 6 6 5 5 5 4 3 3
5 5 4 4 4 3 3 2 2 2 2 2 3 3 3 4 6 7 7 2 3 4 4 4 5 5 8 9 6 6 6 5 6 8 9 8 9 9 6 3 3 3 4
5 5 5 3 3 3 3 3 2 2 3 3 3 3 3 3 5 6 6 2 3 3 3 4 6 6 7 8 6 6 6 6 5 5 5 6 6 6 8 6 5 5 3
5 5 4 3 3 3 3 2 2 2 2 2 2 2 2 3 5 6 5 2 3 3 3 3 3 7 7 7 6 5 7 5 4 4 4 4 4 4 4 5 5 5 5
4 4 4 3 3 3 2 2 2 2 2 2 2 2 2 3 3 4 5 4 4 3 3 3 3 5 6 6 5 5 6 5 2 3 3 3 3 3 3 3 3 3 3
4 4 4 3 3 3 2 2 2 2 2 2 2 2 2 2 2 4 5 4 4 3 3 4 4 5 5 4 4 5 4 2 2 3 3 3 3 2 2 2 2 2 2
3 4 3 3 3 2 2 2 1 1 2 2 2 2 2 2 2 2 2 2 3 3 2 3 4 4 3 3 3 2 1 2 2 3 3 2 1 1 2 2 2 1 1
3 3 3 2 2 2 2 2 2 2 2 2 2 2 2 2 3 4 3 2 2 2 1 1 1 1 1 1 1 1 1 1 2 2 2 2 2 2 2 2 2 1 2
3 3 2 2 2 2 2 2 4 4 5 5 5 4 3 4 5 5 4 4 3 2 1 1 1 1 1 1 2 1 1 1 2 2 2 2 2 2 2 2 2 2 3
3 3 2 2 2 2 2 2 3 3 4 5 5 5 5 5 5 4 4 3 2 1 1 1 1 1 1 1 1 1 2 2 1 2 2 2 2 2 2 3 3 3 3
3 4 3 2 2 2 2 2 2 2 3 3 4 5 5 5 5 4 3 2 1 1 0 1 1 1 1 1 1 1 1 1 1 2 2 2 2 3 3 3 3 3 3
3 2 2 2 2 2 2 2 2 2 2 3 2 3 5 5 4 3 2 1 1 1 1 1 1 1 1 1 2 2 2 2 2 2 2 3 2 2 3 3 3 4 3
2 4 3 2 2 2 2 2 2 2 2 2 2 3 3 2 2 2 1 1 1 1 2 2 2 2 2 2 2 2 2 2 2 3 3 3 2 2 3 3 3 3 3
2 3 4 2 2 2 2 2 2 2 2 2 2 3 4 2 1 2 1 1 2 2 2 2 2 2 2 2 2 2 3 3 3 3 3 2 2 3 3 3 3 3 3
2 2 1 2 2 2 2 1 2 2 2 2 2 3 5 2 1 2 2 2 2 2 1 2 2 2 2 2 2 2 3 3 3 3 2 3 3 3 2 2 3 2 3
2 2 2 2 2 3 2 2 2 2 2 2 2 2 2 2 1 1 2 2 2 2 1 1 2 2 2 2 2 3 3 4 3 3 3 3 3 3 2 2 3 3 3
2 1 2 2 1 1 1 2 1 2 2 2 2 2 2 2 2 2 2 2 1 1 1 1 2 2 3 3 2 3 3 3 2 3 3 3 3 2 2 2 2 3 3
1 1 1 1 2 1 1 2 2 2 2 2 2 2 2 2 2 2 2 1 2 2 2 2 2 2 3 3 3 3 5 6 5 2 2 2 3 2 2 2 2 2 2
1 1 1 1 1 1 1 2 2 2 2 2 2 2 2 2 2 2 2 2 2 2 2 2 2 3 3 3 4 5 6 6 5 4 2 2 3 2 2 2 3 2 2
Wind_Direction
285 284 276 261 255 246 231 228 219 212 205 207 211 213 215 216 212 212 212 211 216 220 220 215 222 220 215 217 222 224 226 221 247 266 262 237 218 223 241 224 226 221 234
289 288 280 270 257 245 243 241 232 220 213 211 212 215 218 220 214 211 214 214 216 217 218 218 221 221 219 221 217 223 226 215 219 245 260 236 225 215 219 226 241 241 230
298 293 292 281 260 251 251 246 236 228 223 220 217 219 223 224 220 216 214 216 219 219 217 220 219 214 221 225 222 222 226 228 218 223 247 246 240 219 221 246 247 239 257
299 292 286 280 269 257 252 246 240 233 226 224 224 227 229 231 228 222 218 219 222 223 224 224 222 219 219 218 223 222 219 220 220 224 238 241 233 227 211 223 262 247 259
305 295 289 290 285 277 260 250 243 242 239 228 225 229 231 234 235 228 225 223 220 224 226 226 228 230 230 229 229 220 212 214 219 226 231 244 235 208 218 220 252 274 265
317 308 309 310 302 290 271 257 248 243 237 225 229 231 237 246 249 246 244 232 225 224 228 228 232 233 234 236 239 236 229 219 217 225 234 232 236 226 226 228 238 252 272
318 313 312 306 303 301 294 263 252 248 241 236 240 237 244 253 254 250 248 246 233 232 230 229 237 237 236 226 233 236 239 238 234 229 231 233 235 229 224 230 231 238 253
318 313 315 314 307 304 296 274 263 252 244 246 253 249 252 256 258 258 253 248 238 237 236 230 231 231 227 223 221 230 237 240 240 236 231 237 242 235 225 227 228 244 264
322 318 321 319 310 299 281 277 274 268 262 258 260 254 252 258 261 263 259 237 241 244 244 240 238 233 237 236 224 225 236 243 248 248 248 249 252 254 248 228 217 229 252
319 316 318 317 308 301 292 282 278 271 261 262 269 262 255 255 262 262 258 233 242 248 245 244 248 247 242 239 224 219 231 236 234 241 244 249 250 249 249 235 219 226 243
314 317 321 323 315 307 308 312 312 296 290 272 274 277 268 266 270 265 258 240 238 243 244 244 247 252 250 248 243 227 235 240 228 227 231 232 234 234 233 230 226 225 233
321 322 323 323 319 320 320 320 319 312 303 291 287 287 280 277 276 276 266 255 253 241 244 247 251 256 257 259 257 248 251 252 227 223 225 229 230 235 236 228 231 238 241
323 320 320 323 324 324 316 312 311 303 293 289 283 282 289 289 284 285 277 262 262 263 253 251 260 262 263 258 265 266 254 229 218 224 227 236 232 229 223 224 235 230 246
316 315 316 319 323 326 320 307 296 283 276 279 278 281 290 294 295 288 274 261 257 262 265 259 255 258 262 266 271 264 239 224 220 230 240 241 232 218 220 216 227 222 248
309 308 311 311 312 312 306 293 286 273 270 275 268 267 277 279 284 292 297 283 259 243 251 262 253 250 232 230 234 237 231 225 237 235 235 236 232 228 234 220 219 216 233
309 310 309 311 310 309 310 309 304 293 303 298 295 291 286 293 303 290 287 292 282 264 226 219 240 246 240 243 245 246 245 244 246 241 235 235 233 229 234 229 215 215 235
299 305 307 307 302 300 301 305 313 317 315 313 309 303 300 305 303 299 294 294 289 226 182 204 233 247 254 256 254 248 250 252 243 235 237 234 232 231 226 229 227 221 229
300 302 305 297 292 287 286 290 293 303 315 320 317 313 312 311 310 308 303 293 286 255 236 236 242 248 248 252 255 260 273 277 256 242 238 237 233 229 227 225 226 227 233
299 300 298 295 297 296 298 298 297 295 296 305 316 317 316 315 318 327 327 292 249 249 246 250 252 253 259 256 257 257 256 255 258 251 245 240 235 231 234 232 228 240 240
293 301 307 300 297 297 296 296 298 298 299 304 312 316 321 319 315 325 313 298 273 262 257 254 260 260 257 251 252 248 248 248 246 245 248 243 238 234 236 237 229 227 227
294 295 303 303 292 284 285 283 281 286 292 295 297 309 321 313 306 304 293 285 273 267 264 264 263 262 259 251 245 247 247 250 248 245 247 244 240 241 237 232 233 229 223
291 286 283 280 283 280 282 278 276 278 283 290 300 310 319 325 310 298 289 285 283 277 271 265 264 261 257 251 244 245 248 250 248 243 245 243 239 236 231 228 226 224 217
293 291 291 289 284 289 301 295 288 285 289 293 296 304 313 310 303 298 297 300 296 289 287 274 268 271 274 268 253 241 245 251 248 236 236 237 231 227 222 218 217 220 218
283 279 280 284 289 288 285 285 284 284 286 287 291 296 299 295 294 295 296 298 298 292 285 276 266 272 275 277 271 264 259 261 248 230 222 222 226 226 215 212 218 215 217
281 278 281 285 288 281 280 283 282 283 286 290 294 299 303 302 300 300 301 303 301 295 294 289 280 274 274 275 274 269 273 278 274 251 210 205 209 210 206 209 212 210 210
301 296 293 292 290 283 276 278 280 279 283 289 292 294 298 299 299 302 304 304 305 302 297 292 287 282 280 276 270 273 280 281 278 272 237 193 189 199 197 199 194 200 198